Probability
61 52 42 29 6 0 0 0 0 0 0 0 3 0 0 0 0 0 0 3 3 10 35 61 68 68 61 61 58 48 48 52 45 45 45 45 42 45 48 45 45 55 58 61 58 61 55 58 61
45 52 45 6 3 0 0 3 0 0 3 3 3 3 0 0 0 3 3 3 3 10 16 23 65 61 58 52 55 52 45 42 39 35 35 29 29 32 39 35 52 42 45 52 48 45 52 55 52
58 61 26 3 0 0 0 3 0 0 3 3 3 3 3 3 0 3 3 3 3 6 13 39 55 55 55 52 45 42 35 32 32 29 29 26 26 29 29 29 32 29 32 39 42 42 42 42 42
39 16 0 3 0 0 0 3 3 3 3 3 3 0 3 0 0 0 3 0 3 6 10 39 55 48 45 35 32 32 32 26 23 16 16 16 16 16 16 13 13 13 16 19 26 26 26 29 29
26 0 0 0 0 0 0 0 0 3 3 0 0 0 0 0 3 0 0 3 0 3 10 23 45 35 32 26 23 19 16 16 13 13 13 10 10 13 13 16 13 13 10 13 16 19 19 19 29
0 0 0 0 0 0 0 0 0 0 0 0 0 0 0 0 0 0 0 3 0 0 13 23 39 32 26 19 19 19 19 13 13 10 10 10 13 10 13 10 0 3 6 6 3 13 13 13 23
0 0 0 0 0 0 0 0 0 0 3 3 3 0 0 0 0 0 0 3 0 6 10 16 23 23 19 19 19 19 16 16 13 10 10 10 10 6 10 6 10 6 6 6 3 13 13 23 26
0 0 0 0 0 0 0 3 3 0 3 3 3 0 0 0 0 0 0 0 0 3 10 13 13 10 13 13 19 16 13 10 6 6 6 6 6 3 3 3 3 0 3 6 13 10 23 23 26
0 0 0 0 0 0 0 0 0 0 3 3 3 3 3 0 0 0 0 0 0 0 3 10 6 6 6 10 13 13 10 13 10 6 6 3 0 0 0 0 3 3 3 3 10 13 23 23 32
0 0 0 0 0 0 0 0 0 0 0 6 6 6 6 3 0 0 0 0 0 0 0 6 6 6 6 3 3 0 0 3 3 3 3 0 0 0 0 0 6 3 3 3 6 23 16 13 0
0 0 0 6 3 3 0 0 0 0 0 0 6 6 6 3 3 0 0 0 0 0 0 0 3 3 0 0 0 0 0 0 0 0 0 0 0 0 0 0 0 0 0 0 0 0 0 0 0
0 0 0 3 3 0 0 0 0 0 0 3 3 3 3 3 3 0 0 0 0 0 0 0 0 0 0 0 0 0 0 0 0 0 0 0 0 0 0 0 0 0 0 0 0 0 0 0 0
0 0 3 3 3 0 0 0 0 0 0 3 3 3 3 3 3 0 0 0 0 0 0 0 0 0 0 0 0 0 0 0 0 0 0 0 0 0 0 0 0 0 0 0 0 0 0 0 0
3 3 0 0 3 0 3 0 0 0 3 3 3 3 3 3 3 3 0 0 0 0 0 0 0 0 0 0 0 0 0 0 0 0 0 0 0 0 0 0 0 0 0 0 0 0 0 0 0
3 3 0 0 0 0 0 0 0 0 0 0 3 3 3 3 3 3 0 0 0 0 0 0 0 0 0 0 0 0 0 0 0 0 0 0 0 0 0 0 0 0 0 0 0 0 0 0 0
0 0 0 0 0 0 0 0 0 0 0 0 0 3 3 3 3 3 0 0 0 0 0 0 0 0 0 0 0 0 0 0 0 0 0 0 0 0 0 0 0 0 0 0 0 0 0 0 0
0 0 0 0 0 0 0 0 0 0 0 0 0 0 3 3 3 3 3 0 0 0 0 0 0 0 0 0 0 0 0 0 0 0 0 0 0 0 0 0 0 0 0 0 0 0 0 0 0
0 0 0 0 0 0 0 0 0 0 0 0 0 0 3 3 3 3 3 0 0 0 0 0 0 0 0 0 0 0 0 0 0 0 0 0 0 0 0 0 0 0 0 0 0 0 0 0 0
0 0 0 0 0 0 0 0 0 3 0 0 0 0 0 3 0 0 0 0 0 0 0 0 0 0 0 0 0 0 0 0 0 0 0 0 0 0 0 0 0 0 0 0 0 0 0 0 0
0 0 0 0 0 0 0 0 0 0 0 0 0 0 0 0 0 0 0 0 0 0 0 0 0 0 0 0 0 0 0 0 0 0 0 0 0 0 0 0 0 0 0 0 0 0 0 0 0
0 0 0 0 0 0 0 0 0 0 0 0 0 3 3 0 0 0 0 0 0 0 0 0 0 0 0 0 0 0 0 0 0 0 0 0 0 0 0 0 0 0 0 0 0 0 0 0 0
0 0 0 0 0 0 0 0 0 0 0 0 3 3 3 0 0 0 0 0 0 0 0 0 0 0 0 0 0 0 0 0 0 0 0 0 0 0 0 0 0 0 0 0 0 0 0 0 0
0 0 0 0 0 0 0 0 0 0 0 3 3 3 3 3 0 0 0 0 0 0 0 0 0 0 0 0 0 0 0 0 0 0 0 0 0 0 0 0 0 0 0 0 0 0 0 0 0
0 0 0 0 0 0 0 0 0 0 0 0 0 3 3 3 0 0 0 0 0 0 0 0 0 0 0 0 0 0 0 0 0 0 0 0 0 0 0 0 0 0 0 0 0 0 0 0 0
0 0 0 0 0 0 0 0 0 0 0 0 0 0 0 3 0 0 0 0 0 0 0 0 0 0 0 0 0 0 0 0 0 0 0 0 0 0 0 0 0 0 0 0 0 0 0 0 0
0 0 0 0 0 0 0 0 0 0 0 0 0 0 3 0 0 0 0 0 0 0 0 0 0 0 0 0 0 0 0 0 0 0 0 0 0 0 0 0 0 0 0 0 0 0 0 0 0
0 0 0 0 0 0 0 0 0 0 0 0 0 0 3 0 0 0 0 0 0 0 0 0 0 0 0 0 0 0 0 0 0 0 0 0 0 0 0 0 0 0 0 0 0 0 0 0 0
0 0 0 0 0 0 0 0 0 0 0 0 0 0 0 0 0 0 0 0 0 0 0 0 0 0 0 0 0 0 0 0 0 0 0 0 0 0 0 0 0 0 0 0 0 0 0 0 0
0 0 0 0 0 0 0 0 0 0 0 0 0 0 0 0 0 0 0 0 0 0 0 0 0 0 0 0 0 0 0 0 0 0 0 0 0 0 0 0 0 0 0 0 0 0 0 0 0
0 0 0 0 0 0 0 0 0 0 0 0 3 3 0 0 0 0 0 0 0 0 0 0 0 0 0 0 0 0 0 0 0 0 0 0 0 0 0 0 0 0 0 0 0 0 0 0 0
Height
5872 5873 5874 5875 5876 5876 5875 5875 5874 5874 5875 5875 5876 5876 5877 5878 5880 5882 5880 5879 5879 5879 5879 5879 5879 5879 5880 5880 5879 5879 5879 5879 5878 5878 5877 5876 5875 5874 5873 5872 5872 5871 5870 5869 5869 5868 5868 5868 5868
5870 5871 5873 5873 5873 5873 5874 5873 5873 5873 5874 5874 5875 5875 5876 5877 5878 5878 5878 5878 5879 5879 5879 5879 5879 5879 5879 5879 5879 5879 5878 5878 5877 5877 5876 5875 5874 5873 5872 5871 5870 5869 5868 5867 5867 5866 5866 5865 5865
5867 5868 5870 5870 5870 5871 5872 5872 5872 5872 5872 5873 5874 5875 5875 5876 5877 5877 5877 5878 5878 5878 5878 5878 5878 5878 5879 5879 5878 5878 5878 5877 5876 5876 5875 5873 5872 5871 5870 5869 5868 5867 5866 5865 5864 5864 5863 5863 5863
5864 5866 5867 5868 5868 5869 5869 5870 5870 5871 5871 5872 5872 5874 5875 5876 5876 5876 5876 5877 5877 5877 5877 5878 5878 5878 5878 5878 5878 5878 5877 5877 5876 5875 5873 5872 5871 5870 5868 5867 5866 5865 5864 5863 5862 5861 5860 5860 5860
5860 5862 5864 5865 5865 5866 5867 5867 5868 5870 5870 5871 5872 5873 5874 5875 5875 5875 5876 5876 5876 5877 5877 5877 5877 5878 5878 5877 5877 5877 5876 5876 5875 5874 5872 5871 5870 5868 5867 5865 5864 5863 5861 5860 5859 5858 5858 5857 5857
5857 5859 5861 5862 5862 5863 5864 5865 5866 5868 5869 5870 5871 5872 5873 5874 5874 5874 5875 5875 5875 5876 5876 5877 5877 5877 5877 5877 5876 5876 5875 5875 5874 5872 5871 5870 5868 5867 5865 5864 5862 5861 5859 5858 5857 5856 5855 5854 5854
5854 5856 5857 5859 5859 5860 5862 5862 5864 5866 5868 5869 5870 5871 5872 5873 5873 5873 5873 5874 5875 5875 5876 5876 5876 5876 5876 5876 5875 5875 5874 5873 5872 5871 5870 5868 5867 5865 5863 5862 5860 5858 5857 5855 5854 5853 5852 5851 5851
5850 5853 5854 5856 5857 5858 5859 5860 5862 5864 5866 5867 5869 5870 5871 5872 5872 5872 5873 5874 5874 5875 5875 5875 5875 5875 5875 5875 5875 5874 5873 5872 5871 5870 5868 5867 5865 5863 5862 5860 5858 5856 5855 5853 5851 5850 5849 5849 5848
5846 5850 5851 5853 5854 5856 5857 5859 5860 5862 5863 5865 5867 5869 5870 5871 5871 5872 5872 5873 5874 5874 5875 5875 5875 5875 5875 5874 5874 5873 5872 5871 5870 5869 5867 5865 5863 5862 5860 5858 5856 5854 5852 5850 5849 5847 5846 5845 5845
5842 5845 5848 5850 5852 5854 5855 5856 5858 5860 5862 5864 5866 5867 5868 5869 5870 5871 5872 5872 5873 5873 5874 5874 5874 5874 5874 5874 5873 5872 5871 5870 5869 5867 5866 5864 5862 5860 5858 5856 5854 5852 5850 5848 5846 5844 5843 5842 5842
5838 5841 5844 5847 5850 5851 5853 5854 5855 5859 5861 5862 5864 5865 5867 5868 5869 5870 5871 5871 5872 5873 5873 5873 5873 5873 5873 5873 5872 5871 5870 5869 5868 5866 5865 5863 5861 5859 5856 5854 5852 5850 5847 5845 5843 5842 5840 5839 5839
5834 5838 5841 5844 5847 5849 5851 5852 5854 5857 5859 5861 5862 5864 5865 5866 5867 5868 5870 5870 5871 5872 5872 5872 5872 5872 5872 5872 5871 5870 5869 5868 5867 5865 5864 5862 5859 5857 5855 5852 5850 5847 5845 5843 5841 5839 5838 5837 5836
5831 5835 5838 5841 5844 5846 5848 5851 5853 5855 5857 5859 5861 5862 5864 5865 5866 5867 5868 5869 5870 5871 5871 5872 5872 5871 5871 5871 5870 5869 5868 5867 5866 5864 5862 5860 5858 5855 5853 5851 5848 5846 5843 5841 5839 5837 5835 5834 5833
5828 5832 5836 5838 5841 5844 5846 5849 5852 5854 5856 5857 5859 5861 5862 5863 5864 5866 5867 5868 5869 5870 5870 5870 5871 5871 5870 5870 5869 5868 5867 5866 5864 5863 5861 5859 5856 5854 5851 5849 5846 5844 5841 5839 5837 5835 5833 5832 5831
5824 5829 5833 5836 5838 5841 5845 5848 5850 5852 5854 5856 5857 5859 5860 5861 5863 5864 5865 5866 5867 5868 5869 5869 5870 5869 5869 5869 5868 5867 5866 5865 5863 5861 5859 5857 5855 5852 5850 5847 5845 5842 5839 5837 5835 5832 5831 5829 5828
5821 5826 5830 5834 5836 5839 5844 5846 5848 5850 5852 5854 5855 5857 5858 5860 5861 5862 5864 5864 5865 5866 5867 5868 5868 5868 5867 5867 5867 5866 5865 5863 5862 5860 5858 5856 5853 5851 5848 5846 5843 5841 5838 5835 5833 5831 5829 5827 5826
5819 5824 5828 5832 5834 5837 5841 5844 5846 5847 5850 5852 5853 5855 5857 5858 5860 5861 5862 5863 5864 5865 5866 5866 5867 5866 5866 5866 5865 5864 5863 5862 5860 5859 5857 5854 5852 5850 5847 5844 5842 5839 5836 5834 5831 5829 5827 5825 5824
5818 5822 5825 5829 5832 5835 5839 5841 5843 5845 5847 5850 5852 5854 5855 5857 5858 5859 5861 5862 5863 5864 5864 5865 5865 5865 5865 5864 5864 5863 5862 5860 5859 5857 5855 5853 5851 5849 5846 5843 5841 5838 5835 5832 5830 5828 5826 5824 5822
5816 5819 5823 5826 5830 5833 5836 5838 5841 5843 5845 5847 5849 5851 5853 5855 5856 5857 5859 5860 5861 5862 5863 5863 5864 5864 5863 5863 5862 5861 5860 5859 5858 5856 5854 5852 5850 5848 5845 5843 5840 5837 5834 5831 5829 5827 5824 5823 5821
5814 5818 5821 5825 5828 5831 5833 5836 5839 5841 5844 5845 5847 5849 5851 5853 5855 5856 5857 5858 5859 5861 5862 5862 5862 5862 5862 5862 5861 5860 5859 5858 5857 5855 5854 5852 5849 5847 5845 5842 5839 5836 5833 5831 5828 5826 5824 5822 5820
5813 5817 5821 5823 5826 5829 5832 5834 5837 5839 5841 5843 5845 5847 5849 5851 5852 5854 5856 5857 5858 5859 5860 5861 5861 5861 5861 5861 5860 5859 5858 5857 5856 5854 5853 5851 5849 5846 5844 5841 5839 5836 5833 5830 5828 5825 5823 5821 5819
5813 5817 5820 5822 5825 5827 5831 5833 5836 5837 5839 5841 5844 5846 5848 5849 5851 5852 5854 5856 5857 5858 5859 5860 5860 5860 5860 5860 5859 5858 5857 5856 5855 5854 5852 5850 5848 5846 5843 5841 5838 5836 5833 5830 5828 5825 5822 5820 5818
5813 5816 5819 5821 5824 5827 5829 5832 5835 5836 5838 5840 5842 5844 5846 5847 5849 5851 5853 5854 5856 5857 5858 5858 5859 5859 5859 5858 5858 5857 5856 5855 5854 5853 5851 5849 5847 5845 5843 5840 5838 5835 5833 5830 5828 5825 5822 5820 5817
5813 5816 5818 5820 5823 5826 5828 5830 5833 5834 5837 5839 5840 5842 5844 5846 5848 5849 5851 5853 5854 5856 5856 5857 5858 5858 5858 5857 5857 5856 5855 5854 5853 5852 5850 5848 5846 5844 5842 5840 5837 5835 5833 5830 5827 5825 5822 5819 5817
5813 5816 5818 5820 5822 5825 5827 5828 5832 5833 5835 5837 5839 5841 5843 5845 5846 5848 5850 5851 5853 5854 5855 5856 5856 5856 5856 5856 5855 5855 5854 5853 5852 5851 5849 5848 5846 5844 5842 5839 5837 5835 5832 5830 5827 5824 5822 5819 5816
5813 5816 5819 5821 5822 5824 5825 5827 5830 5831 5833 5835 5837 5839 5841 5843 5845 5847 5849 5850 5852 5853 5853 5854 5855 5855 5855 5855 5854 5854 5853 5852 5851 5850 5848 5847 5845 5843 5841 5839 5837 5834 5832 5829 5827 5824 5822 5819 5817
5813 5815 5818 5820 5821 5823 5824 5826 5828 5830 5832 5834 5836 5838 5839 5841 5843 5845 5847 5849 5850 5851 5852 5852 5853 5853 5853 5853 5853 5852 5851 5850 5849 5848 5847 5845 5844 5842 5840 5838 5836 5834 5831 5829 5826 5824 5821 5819 5817
5814 5816 5818 5819 5820 5821 5823 5825 5828 5829 5831 5833 5835 5836 5838 5840 5842 5844 5846 5847 5848 5849 5850 5851 5851 5851 5851 5851 5851 5850 5849 5849 5848 5846 5845 5844 5842 5841 5839 5837 5835 5833 5831 5828 5826 5824 5821 5819 5817
5814 5816 5817 5818 5819 5821 5823 5827 5827 5828 5830 5831 5833 5835 5837 5839 5840 5842 5844 5845 5846 5847 5848 5849 5849 5849 5849 5849 5849 5848 5847 5847 5846 5845 5843 5842 5841 5839 5838 5836 5834 5832 5830 5828 5825 5823 5821 5819 5817
5813 5814 5816 5818 5819 5820 5822 5827 5825 5827 5828 5830 5832 5833 5835 5837 5839 5840 5842 5843 5844 5845 5846 5847 5847 5847 5847 5847 5847 5846 5845 5844 5844 5843 5842 5840 5839 5838 5836 5834 5833 5831 5829 5827 5825 5822 5820 5818 5816
Wind_Speed
12 11 10 9 8 7 5 5 4 4 5 5 5 5 5 4 4 3 3 2 2 2 2 1 1 1 1 1 1 2 3 4 5 6 7 7 8 8 8 9 10 10 11 11 12 12 13 13 13
14 13 12 11 10 8 7 7 5 4 4 4 5 5 5 5 4 3 3 2 2 2 2 2 2 1 1 1 1 2 3 4 5 6 7 8 8 9 9 10 10 11 11 11 12 12 12 13 13
15 14 13 12 11 10 9 7 6 5 4 4 5 5 5 5 4 3 3 2 1 1 1 2 1 1 1 1 2 3 3 4 5 6 7 8 8 8 9 9 10 10 11 12 12 12 13 13 13
16 15 15 14 13 12 11 8 6 5 5 4 5 5 5 5 4 4 3 2 1 1 2 1 1 0 1 2 2 2 3 5 6 6 7 7 8 8 9 9 10 10 11 11 12 12 13 13 13
17 17 16 16 15 14 12 9 8 7 6 6 6 6 6 5 5 4 3 2 2 2 2 2 1 1 1 2 2 3 4 5 6 7 7 8 8 9 10 10 10 10 11 11 11 12 13 13 13
18 18 18 17 15 15 14 10 8 8 7 7 7 6 6 5 5 4 3 3 3 2 2 2 1 1 1 2 3 3 4 5 6 7 7 8 9 9 9 10 10 10 10 11 11 12 13 13 14
19 19 18 18 16 15 14 12 9 8 8 8 8 7 6 5 5 4 3 3 3 2 2 2 1 1 1 2 2 3 4 5 6 7 8 8 9 9 10 10 10 10 11 11 12 12 13 13 13
21 20 19 18 17 16 14 10 10 8 10 10 8 7 6 5 4 3 3 3 3 2 2 2 1 0 1 1 2 3 4 5 6 7 8 8 9 10 10 10 10 10 11 12 12 12 12 12 13
22 22 21 20 18 16 14 13 10 10 9 9 8 7 7 6 5 4 4 4 3 3 2 2 1 1 1 1 2 3 4 6 7 7 8 9 9 10 11 11 11 11 11 12 12 13 12 12 12
22 22 22 21 18 17 15 14 12 10 8 8 7 7 7 6 5 5 4 3 3 3 2 2 1 1 1 0 2 3 5 6 7 8 9 9 9 10 11 11 11 11 12 12 12 12 12 12 12
23 23 22 21 18 17 16 13 10 9 8 8 8 7 7 6 6 5 4 3 3 3 2 2 2 1 1 0 2 3 5 6 7 8 8 9 10 10 11 11 11 11 12 12 11 11 11 11 11
24 24 22 19 19 17 15 12 10 10 8 8 8 8 8 7 5 5 4 3 3 3 3 3 3 2 1 1 2 4 5 6 7 8 9 10 10 11 11 11 11 12 12 12 12 11 11 10 10
24 23 21 20 20 17 14 12 10 9 9 9 9 8 7 6 6 5 5 4 4 3 4 4 3 2 1 2 3 4 5 6 7 8 9 10 10 11 11 11 12 12 12 12 12 11 11 10 10
24 23 21 19 19 17 14 12 11 10 9 10 9 8 8 7 6 6 6 5 5 4 4 4 3 3 2 2 3 4 5 6 7 8 9 10 10 11 11 12 12 12 12 12 12 11 10 10 10
24 23 22 21 18 15 14 12 12 11 10 10 9 8 8 6 6 6 6 6 6 5 5 4 3 3 3 3 3 4 5 6 7 8 9 10 11 11 11 12 13 13 13 13 12 11 10 9 9
24 23 22 20 19 17 14 12 12 12 11 10 10 9 8 7 6 6 5 5 6 6 5 4 3 3 3 3 3 5 5 6 7 8 9 10 11 11 12 12 13 13 13 13 12 11 10 10 9
23 21 20 20 19 17 15 14 13 12 11 10 9 9 8 8 7 6 6 7 6 6 5 4 4 4 3 3 4 5 6 6 7 8 9 10 11 12 12 12 13 14 13 13 12 11 10 10 9
21 21 20 20 19 17 16 15 13 12 11 11 10 9 8 7 6 6 7 8 7 6 5 4 4 3 3 3 4 5 5 6 7 8 9 10 11 11 12 12 13 14 14 13 12 11 11 10 8
20 20 20 19 19 18 16 14 13 11 11 11 10 9 8 7 7 7 7 7 7 7 6 5 4 3 3 3 4 4 5 6 7 8 9 10 10 11 12 12 13 14 14 13 12 11 11 10 9
20 19 18 17 18 17 16 15 13 11 10 10 10 10 9 8 8 8 8 8 7 7 6 5 4 3 3 3 4 4 5 6 7 8 9 9 10 11 12 13 13 14 14 13 12 12 11 10 9
18 18 16 16 16 16 16 15 13 12 11 11 10 10 10 9 9 9 8 8 8 7 5 4 3 3 2 3 3 4 5 5 7 7 8 9 10 11 12 12 13 14 14 13 12 12 11 10 9
17 16 16 15 14 14 14 14 13 12 11 11 10 10 10 9 9 8 8 9 8 7 6 4 3 2 2 3 3 4 5 5 6 7 8 9 10 11 11 12 12 13 13 13 13 13 12 11 10
16 17 15 15 14 13 13 13 13 12 11 10 10 10 9 9 10 9 9 9 8 7 5 4 3 2 2 3 3 4 5 5 6 7 8 9 9 10 11 12 12 13 13 13 13 13 13 12 11
16 17 17 15 15 13 13 13 13 11 11 10 10 10 9 9 9 9 9 9 8 6 5 4 4 3 3 3 3 4 4 5 6 7 8 8 9 10 11 12 12 13 13 13 13 13 14 13 12
17 16 16 15 14 13 13 12 11 11 11 10 10 10 9 9 9 9 9 9 7 6 5 5 4 3 3 3 3 4 4 5 6 7 7 8 9 10 10 11 12 12 13 13 13 13 14 13 12
17 16 15 14 12 12 12 11 11 11 11 11 10 10 10 9 10 10 9 8 7 6 5 5 4 3 3 3 4 4 5 5 6 7 7 8 9 10 10 11 11 12 12 13 13 13 13 14 13
16 15 13 12 12 12 11 10 11 12 12 11 10 10 10 10 10 10 9 8 7 7 6 5 4 4 4 4 4 5 5 6 6 7 7 8 9 10 10 11 12 12 12 12 12 12 13 13 13
15 14 13 12 12 11 11 10 11 10 10 10 10 10 10 10 9 10 9 8 7 7 6 6 5 5 5 5 5 5 5 6 6 7 7 8 9 10 11 11 12 12 12 12 12 12 13 13 12
15 14 13 12 11 11 11 10 10 10 9 9 9 10 10 10 10 10 9 9 8 7 6 6 5 6 6 6 6 6 6 7 7 7 8 8 9 10 11 11 12 12 12 12 12 12 12 13 12
14 13 12 11 11 11 10 10 11 10 10 10 9 10 10 10 10 10 9 8 8 7 7 6 6 6 6 6 6 6 7 7 7 7 8 9 10 10 11 11 12 12 12 12 12 12 12 13 13
Wind_Direction
241 241 243 247 251 253 261 263 250 216 205 204 210 199 195 183 194 200 194 201 196 215 231 207 207 211 231 263 291 309 313 311 311 308 307 305 302 297 293 291 290 289 286 283 281 276 272 268 266
240 240 240 243 245 250 254 257 247 220 206 194 202 207 205 201 196 192 182 189 193 215 213 187 188 193 240 263 291 305 308 315 316 314 313 312 308 302 298 295 292 290 288 284 281 277 274 269 266
239 237 235 239 239 243 249 250 233 224 208 189 189 193 197 196 185 190 186 170 184 205 161 170 173 178 251 273 296 308 314 320 319 318 316 315 312 305 302 300 297 293 289 286 282 278 275 271 267
236 233 232 235 238 239 240 236 227 216 206 197 188 187 187 187 184 190 201 183 189 168 144 142 152 196 261 284 306 311 318 324 324 321 318 316 315 312 309 305 301 296 291 288 285 281 276 273 270
232 226 228 231 234 236 233 225 225 221 214 199 189 189 187 183 187 199 198 176 176 159 147 151 169 232 287 293 300 311 319 325 327 325 323 321 319 316 311 308 305 301 296 292 290 287 281 274 269
228 226 225 227 232 236 233 225 214 208 212 199 191 193 190 190 192 195 189 170 162 165 172 171 185 261 284 289 306 316 324 329 330 329 327 323 319 315 313 311 308 305 300 296 291 287 284 277 270
225 223 224 227 232 231 229 220 218 206 206 195 194 199 199 192 184 187 188 169 169 179 186 195 210 273 280 303 318 326 333 336 336 335 333 330 325 320 318 315 311 306 304 301 296 291 285 278 271
222 221 223 227 231 230 225 222 220 208 205 200 199 201 199 196 193 190 189 180 182 187 189 192 204 269 295 324 337 340 342 342 340 340 339 336 331 328 327 323 317 311 307 303 298 294 287 281 274
221 220 222 225 228 229 224 227 223 215 195 193 202 202 200 205 203 187 182 183 181 177 178 174 182 210 276 334 352 349 347 344 343 345 344 341 336 332 331 328 323 316 311 306 301 294 288 283 277
220 220 220 223 228 228 227 220 216 211 198 196 203 206 207 210 206 196 183 176 177 174 178 189 188 202 214 348 350 346 347 347 348 347 346 344 341 337 334 331 326 320 314 309 304 298 290 284 277
219 218 219 223 226 226 225 219 214 212 203 203 208 211 209 211 207 197 182 179 179 185 198 201 196 195 170 352 344 347 345 347 349 349 346 344 343 341 339 335 331 326 321 318 314 307 297 286 278
217 217 218 221 223 224 222 215 218 210 204 203 203 198 201 205 202 199 188 181 183 191 200 203 199 196 220 323 343 344 342 343 343 343 343 342 342 342 341 340 337 333 329 325 321 315 305 292 282
215 215 215 219 221 221 216 211 217 209 201 201 199 193 201 202 204 203 198 190 194 199 198 200 201 210 251 311 327 330 336 340 339 340 341 341 341 342 341 341 342 339 335 332 327 320 312 301 290
211 212 212 212 217 219 219 215 221 213 204 205 203 200 202 200 199 203 204 198 198 198 196 197 201 224 254 289 315 324 333 339 341 342 344 344 344 343 342 343 344 343 341 337 332 325 316 308 298
206 207 207 209 214 214 217 216 219 218 210 209 206 204 205 208 205 207 205 204 201 201 201 207 219 242 262 287 315 325 331 338 340 341 344 346 347 347 345 346 346 345 344 341 337 330 322 314 307
204 205 205 206 211 213 211 211 214 215 211 210 205 202 207 209 210 207 203 197 197 202 207 219 240 258 271 290 319 325 327 331 337 339 343 346 347 348 347 347 348 348 346 343 340 336 329 321 312
201 200 200 203 209 211 210 210 210 208 210 211 205 200 205 209 206 206 204 197 194 198 205 219 245 262 274 293 315 319 322 329 336 340 344 347 350 351 351 349 351 352 350 347 343 338 333 325 316
197 198 199 201 205 208 207 207 206 209 204 204 208 207 204 204 203 203 200 198 198 201 204 217 239 260 276 297 309 315 322 331 337 341 345 350 352 352 353 353 354 354 354 351 348 343 338 333 325
193 194 195 199 203 205 204 202 203 206 205 205 208 208 204 201 205 204 201 199 200 201 205 217 236 258 272 295 309 314 324 332 336 341 345 348 351 353 355 356 356 355 355 355 354 350 346 342 336
192 192 190 193 197 201 202 199 199 203 206 205 206 207 205 207 207 202 203 205 201 200 207 218 233 257 279 299 312 319 324 331 335 340 345 347 350 353 354 355 357 358 357 358 357 355 352 347 341
187 189 189 193 193 194 198 199 198 202 205 205 202 200 203 208 206 204 204 200 197 198 204 216 233 258 287 304 310 319 328 332 337 341 344 346 348 351 354 357 359 360 359 360 360 358 356 351 346
179 180 185 185 188 193 195 196 196 197 204 204 198 196 199 202 202 202 203 197 194 194 196 211 226 253 283 299 307 318 330 335 339 342 344 346 349 353 357 359 -0 1 1 1 2 360 358 355 349
179 180 185 187 190 192 193 196 193 196 199 201 196 190 194 199 200 196 198 197 195 194 198 210 224 248 275 294 299 318 330 335 338 341 345 349 353 355 357 360 1 2 1 0 0 1 1 360 354
173 177 184 190 193 196 195 198 192 192 195 197 195 194 194 197 196 192 195 198 198 201 206 217 232 250 264 282 299 319 327 333 338 341 345 349 353 354 356 359 358 358 359 359 0 1 2 1 357
178 181 184 190 191 193 193 196 189 190 191 193 198 197 193 194 194 193 196 201 200 207 212 220 231 246 262 280 297 315 318 325 330 336 339 346 351 352 355 357 355 355 357 358 360 1 2 2 0
178 181 183 189 190 187 192 192 188 189 190 191 197 196 190 189 192 192 195 198 203 209 213 221 232 244 261 279 294 309 314 319 324 328 333 341 348 350 351 353 354 355 356 357 358 360 2 3 3
179 185 191 194 199 195 190 187 184 191 193 193 192 192 190 188 192 192 196 201 208 215 220 225 233 245 262 278 290 299 308 315 319 320 324 335 343 347 348 348 351 353 355 356 357 357 359 2 3
179 184 191 196 196 197 193 186 179 179 181 184 192 192 189 188 194 199 202 207 213 218 224 230 238 249 263 273 286 295 304 311 314 318 323 328 333 338 343 346 346 347 349 351 353 355 357 359 1
180 189 195 196 198 200 197 185 178 180 182 186 191 194 194 193 200 204 206 211 217 223 228 235 242 254 262 274 284 290 298 306 311 314 319 324 328 331 334 338 342 343 343 345 348 350 352 354 355
187 197 204 207 205 203 199 194 190 182 186 189 195 199 200 202 207 209 211 217 223 227 232 237 245 254 262 273 283 293 296 300 306 309 313 317 321 324 326 329 333 337 338 338 341 343 344 346 347